HB9BHU-8 Weather Reports


Display with metric or nautical units.
time (UTC)temp
F
wind
direction
speed
MPH
gust
MPH
rain 1hr
in
rain 24hr
in
rain mn
in
humidity
%
barometer
mb
20260507171554 60 342 5.0 10.0 0.00 0.00 0.00 65 1016.6
20260507170053 60 5 4.0 9.0 0.00 0.00 0.00 65 1016.4
20260507164550 60 324 5.0 10.0 0.00 0.00 0.00 63 1016.5
20260507163049 61 295 6.0 12.0 0.00 0.00 0.00 61 1016.4
20260507161553 62 296 6.0 10.0 0.00 0.00 0.00 62 1016.4
20260507160050 61 311 6.0 10.0 0.00 0.00 0.00 63 1016.3
20260507154548 61 325 5.0 10.0 0.00 0.00 0.00 64 1016.5
20260507153058 61 355 2.0 7.0 0.00 0.00 0.00 65 1016.4
20260507151545 61 324 4.0 10.0 0.00 0.00 0.00 64 1016.4
20260507150046 61 331 7.0 12.0 0.00 0.00 0.00 64 1016.6
20260507144545 62 296 9.0 14.0 0.00 0.00 0.00 65 1016.4
20260507143057 62 350 3.0 9.0 0.00 0.00 0.00 66 1016.5
20260507141540 61 13 5.0 9.0 0.00 0.00 0.00 66 1016.6
20260507140138 60 32 4.0 11.0 0.00 0.00 0.00 71 1016.7
20260507134538 58 331 2.0 7.0 0.00 0.00 0.00 74 1016.8
20260507133044 57 5 2.0 8.0 0.00 0.00 0.00 83 1017.0
20260507131546 56 16 5.0 10.0 0.00 0.00 0.00 84 1017.1
20260507130041 56 315 7.0 19.0 0.00 0.00 0.00 77 1017.2
20260507124538 59 332 7.0 11.0 0.00 0.00 0.00 72 1016.9
20260507123035 59 342 8.0 14.0 0.00 0.00 0.00 72 1017.0
20260507121534 59 317 2.0 10.0 0.00 0.00 0.00 74 1017.0
20260507120033 59 32 4.0 9.0 0.00 0.00 0.00 78 1017.1
20260507114534 58 328 4.0 11.0 0.00 0.00 0.00 77 1017.1
20260507113031 56 18 7.0 12.0 0.00 0.00 0.00 79 1017.3
20260507111530 58 316 6.0 12.0 0.00 0.00 0.00 73 1017.2
20260507110028 59 207 0.0 3.0 0.00 0.00 0.00 73 1017.2
20260507104525 58 217 0.0 5.0 0.00 0.00 0.00 75 1017.3
20260507103022 57 144 1.0 5.0 0.00 0.00 0.00 80 1017.4
20260507101518 56 143 2.0 7.0 0.00 0.00 0.00 84 1017.4
20260507100017 55 202 2.0 7.0 0.00 0.00 0.00 85 1017.6
20260507094516 54 288 3.0 7.0 0.00 0.00 0.00 88 1017.6
20260507093015 53 297 1.0 5.0 0.00 0.00 0.00 89 1017.6
20260507091507 53 255 0.0 3.0 0.00 0.00 0.00 92 1017.5
20260507090006 52 254 5.0 8.0 0.00 0.00 0.00 91 1017.5
20260507084507 51 250 3.0 7.0 0.00 0.00 0.00 93 1017.5
20260507083100 51 238 3.0 6.0 0.00 0.00 0.00 93 1017.5
20260507081600 51 205 2.0 5.0 0.00 0.00 0.00 95 1017.5
20260507080056 50 192 0.0 0.0 0.00 0.00 0.00 97 1017.5
20260507074555 50 126 0.0 0.0 0.00 0.00 0.00 97 1017.5
20260507073049 49 125 0.0 0.0 0.00 0.00 0.00 97 1017.4
20260507071548 49 125 0.0 0.0 0.00 0.00 0.00 97 1017.3
20260507070100 49 125 0.0 0.0 0.00 0.00 0.00 97 1017.3
20260507064549 49 125 0.0 0.0 0.00 0.00 0.00 97 1017.1
20260507063038 48 125 0.0 0.0 0.00 0.00 0.00 96 1017.0
20260507061536 48 125 0.0 0.0 0.00 0.00 0.00 96 1016.9
20260507060034 48 125 0.0 3.0 0.00 0.00 0.00 96 1016.8
20260507054542 48 131 2.0 4.0 0.00 0.00 0.00 96 1016.6
20260507053033 47 173 0.0 2.0 0.00 0.00 0.00 96 1016.5
20260507051529 47 178 0.0 0.0 0.00 0.00 0.00 96 1016.4
20260507050039 47 178 0.0 0.0 0.00 0.00 0.00 96 1016.2
20260507044525 47 178 0.0 0.0 0.00 0.00 0.00 95 1016.1
20260507043023 47 178 0.0 0.0 0.00 0.00 0.00 95 1015.9
20260507041521 47 180 0.0 0.0 0.00 0.00 0.00 95 1015.8
20260507040020 47 180 0.0 0.0 0.00 0.00 0.00 94 1015.8
20260507034522 47 180 0.0 0.0 0.00 0.00 0.00 94 1015.7
20260507033019 47 180 0.0 2.0 0.00 0.00 0.00 94 1015.6
20260507031517 47 180 0.0 2.0 0.00 0.00 0.00 94 1015.4
20260507030018 47 181 0.0 1.0 0.00 0.00 0.00 94 1015.4
20260507024516 47 182 0.0 0.0 0.00 0.00 0.00 94 1015.4
20260507023015 47 182 0.0 2.0 0.00 0.00 0.00 94 1015.3
20260507021514 47 180 0.0 4.0 0.00 0.00 0.00 94 1015.2
20260507020016 47 178 0.0 4.0 0.00 0.00 0.00 94 1015.2
20260507014514 47 197 1.0 4.0 0.00 0.00 0.00 93 1015.1
20260507013012 48 192 1.0 5.0 0.00 0.00 0.00 92 1014.9
20260507011511 47 184 0.0 3.0 0.00 0.00 0.00 92 1014.8
20260507010016 48 201 0.0 5.0 0.00 0.00 0.00 92 1014.8
20260507004509 48 200 3.0 6.0 0.00 0.00 0.00 92 1014.8
20260507003008 47 194 2.0 7.0 0.00 0.00 0.00 93 1014.7
20260507001506 47 169 0.0 7.0 0.00 0.00 0.00 95 1014.7
20260507000004 46 121 3.0 8.0 0.00 0.00 0.00 97 1014.8
20260506234501 45 119 4.0 7.0 0.00 0.00 0.00 96 1014.8
20260506233100 46 128 3.0 7.0 0.00 0.00 0.00 96 1014.8
20260506231558 46 125 2.0 5.0 0.00 0.00 0.00 96 1014.7
20260506230103 46 115 4.0 8.0 0.00 0.00 0.00 96 1014.6
20260506224556 46 111 0.0 4.0 0.00 0.00 0.00 97 1014.5
20260506223058 45 111 4.0 5.0 0.00 0.00 0.00 96 1014.5
20260506221600 46 117 3.0 4.0 0.00 0.00 0.00 96 1014.4
20260506220050 46 137 0.0 4.0 0.00 0.00 0.00 96 1014.4
20260506214548 46 144 1.0 5.0 0.00 0.00 0.00 96 1014.3
20260506213054 46 120 0.0 3.0 0.00 0.00 0.00 96 1014.3
20260506211552 46 120 3.0 8.0 0.00 0.00 0.00 96 1014.2
20260506210048 46 120 5.0 8.0 0.00 0.00 0.00 96 1014.1
20260506204546 46 107 3.0 9.0 0.00 0.00 0.00 96 1014.1
20260506203042 46 117 4.0 9.0 0.00 0.00 0.00 95 1014.1
20260506201540 47 121 2.0 10.0 0.00 0.00 0.00 93 1013.8
20260506200037 48 113 3.0 7.0 0.00 0.00 0.00 92 1013.4
20260506194534 49 105 4.0 7.0 0.00 0.00 0.00 91 1013.3
20260506193044 49 114 3.0 5.0 0.00 0.00 0.00 91 1013.1
20260506191532 49 119 3.0 8.0 0.00 0.00 0.00 91 1013.0
20260506190030 49 113 4.0 7.0 0.00 0.00 0.00 91 1012.9
20260506184531 50 151 2.0 5.0 0.00 0.00 0.00 89 1012.8
20260506183026 51 189 2.0 6.0 0.00 0.00 0.00 88 1012.7
20260506181536 51 186 1.0 4.0 0.00 0.00 0.00 88 1012.4
20260506180025 51 200 1.0 4.0 0.00 0.00 0.00 87 1012.3
20260506174523 51 219 1.0 4.0 0.00 0.00 0.00 87 1012.3
20260506173038 51 205 0.0 8.0 0.00 0.00 0.00 87 1012.1